Weather History for KPWM - May, 2013

Change the Weather History Date:

Saturday, May 25, 2013

  Actual Average Record
Temperature  
Mean Temperature 50 °F 57 °F  
Max Temperature 54 °F 66 °F 92 °F (2007)
Min Temperature 46 °F 47 °F 27 °F (1956)
Degree Days  
Heating Degree Days 15 9  
Month to date heating degree days 301 306  
Since 1 July heating degree days 6446 6954  
Cooling Degree Days 0 0  
Month to date cooling degree days 0 0  
Year to date cooling degree days 0 0  
Moisture  
Dew Point 46 °F    
Average Humidity 85    
Maximum Humidity 93    
Minimum Humidity 77    
Precipitation  
Precipitation 0.59 in 0.13 in 2.74 in (1894)
Month to date precipitation 4.36 3.24  
Year to date precipitation 15.59 18.43  
Snow  
Snow 0.00 in 0.00 in 0.00 in (2002)
Month to date snowfall 0.0 0.1  
Since 1 July snowfall 98.0 62.0  
Snow Depth 0.00 in    
Sea Level Pressure  
Sea Level Pressure 29.72 in    
Wind  
Wind Speed 14 mph (North)    
Max Wind Speed 25 mph    
Max Gust Speed 37 mph    
Visibility 4 miles    
Events Rain    
T = Trace of Precipitation, MM = Missing Value Source: NWS Daily Summary

Daily Weather History Graph

Daily Weather History Graph

Search for Another Location

Airport or City:

Trip Planner

Search our weather history database for the weather conditions in past years. The results will help you decide how hot, cold, wet, or windy it might be!

Date:

Astronomy

May. 25, 2013 Rise Set
Actual Time 5:06 AM EDT 8:10 PM EDT
Civil Twilight 4:32 AM EDT 8:44 PM EDT
Nautical Twilight 3:48 AM EDT 9:28 PM EDT
Astronomical Twilight 2:56 AM EDT 10:21 PM EDT
Moon 8:54 PM EDT (5/25) 5:31 AM EDT (5/25)
Length of Visible Light 16h 11m
Length of Day
15h 03m
Full, 100% of the Moon is Illuminated
May 25
Full
May 31
Last Quarter
Jun 8
New
Jun 16
First Quarter
Jun 23
Full

Hourly Weather History & Observations

Time (EDT) Temp. Windchill Dew Point Humidity Pressure Visibility Wind Dir Wind Speed Gust Speed Precip Events Conditions
12:51 AM 48.9 °F - 46.9 °F 93% 29.83 in 4.0 mi North 12.7 mph - 0.02 in Rain Light Rain
1:08 AM 48.9 °F - 46.9 °F 93% 29.83 in 4.0 mi North 10.4 mph - 0.01 in Rain Light Rain
1:51 AM 48.0 °F - 46.9 °F 96% 29.82 in 4.0 mi North 13.8 mph - 0.01 in Rain Light Rain
2:46 AM 48.2 °F - 46.4 °F 93% 29.82 in 5.0 mi North 11.5 mph 19.6 mph 0.01 in   Overcast
2:51 AM 46.9 °F - 46.0 °F 97% 29.82 in 5.0 mi North 11.5 mph - 0.01 in   Overcast
3:38 AM 46.9 °F - 45.0 °F 93% 29.81 in 4.0 mi North 11.5 mph - 0.00 in Rain Light Rain
3:51 AM 46.9 °F - 45.0 °F 93% 29.80 in 4.0 mi North 13.8 mph - 0.00 in   Overcast
4:51 AM 46.9 °F - 45.0 °F 93% 29.79 in 3.0 mi NNE 10.4 mph - 0.00 in   Overcast
5:11 AM 46.9 °F - 45.0 °F 93% 29.77 in 3.0 mi North 13.8 mph - 0.01 in Rain Light Rain
5:14 AM 46.9 °F - 45.0 °F 93% 29.77 in 4.0 mi North 12.7 mph - 0.01 in Rain Light Rain
5:51 AM 46.9 °F - 45.0 °F 93% 29.75 in 3.0 mi NNE 12.7 mph 21.9 mph 0.01 in   Overcast
6:51 AM 48.0 °F - 46.0 °F 93% 29.75 in 3.0 mi NNE 16.1 mph 23.0 mph 0.00 in Rain Light Rain
7:25 AM 48.0 °F - 46.0 °F 93% 29.75 in 2.0 mi North 10.4 mph 19.6 mph 0.05 in Rain Light Rain
7:47 AM 48.2 °F - 46.4 °F 93% 29.75 in 1.0 mi North 12.7 mph - 0.07 in Rain Light Rain
7:51 AM 48.0 °F - 46.0 °F 93% 29.75 in 1.0 mi North 12.7 mph - 0.08 in Rain Rain
8:51 AM 48.9 °F - 46.9 °F 93% 29.75 in 1.0 mi North 13.8 mph - 0.13 in Rain Rain
9:51 AM 50.0 °F - 48.0 °F 93% 29.73 in 1.8 mi North 15.0 mph - 0.04 in Rain Light Rain
10:51 AM 50.0 °F - 46.9 °F 89% 29.74 in 1.8 mi North 12.7 mph 23.0 mph 0.04 in Rain Light Rain
11:51 AM 51.1 °F - 48.0 °F 89% 29.73 in 10.0 mi North 15.0 mph 32.2 mph 0.00 in   Overcast
12:51 PM 52.0 °F - 48.0 °F 86% 29.69 in 10.0 mi NNE 18.4 mph 38.0 mph N/A   Overcast
1:51 PM 52.0 °F - 46.0 °F 80% 29.70 in 10.0 mi NNE 17.3 mph 32.2 mph N/A   Overcast
2:35 PM 52.0 °F - 46.0 °F 80% 29.70 in 10.0 mi NNE 16.1 mph 29.9 mph N/A   Overcast
2:51 PM 51.1 °F - 46.0 °F 83% 29.69 in 10.0 mi NNE 16.1 mph 29.9 mph N/A   Overcast
3:51 PM 51.1 °F - 45.0 °F 80% 29.69 in 10.0 mi NNE 15.0 mph 27.6 mph N/A   Overcast
4:51 PM 48.9 °F - 45.0 °F 86% 29.68 in 6.0 mi North 12.7 mph 29.9 mph 0.00 in Rain Light Rain
5:31 PM 48.0 °F - 45.0 °F 89% 29.67 in 3.0 mi North 17.3 mph 27.6 mph 0.01 in Rain Light Rain
5:51 PM 48.0 °F - 45.0 °F 89% 29.67 in 2.5 mi North 17.3 mph 32.2 mph 0.02 in Rain Light Rain
5:57 PM 48.0 °F - 45.0 °F 89% 29.67 in 2.5 mi North 15.0 mph 29.9 mph 0.00 in Rain Light Rain
6:04 PM 48.0 °F - 45.0 °F 89% 29.67 in 2.0 mi North 19.6 mph 27.6 mph 0.01 in Rain Light Rain
6:44 PM 46.9 °F - 45.0 °F 93% 29.67 in 2.0 mi North 20.7 mph 26.5 mph 0.02 in Rain Light Rain
6:51 PM 46.9 °F - 45.0 °F 93% 29.67 in 2.0 mi North 15.0 mph 26.5 mph 0.03 in Rain Light Rain
7:08 PM 46.9 °F - 45.0 °F 93% 29.67 in 2.0 mi North 17.3 mph 23.0 mph 0.02 in Rain Rain
7:51 PM 46.9 °F - 45.0 °F 93% 29.67 in 1.5 mi North 13.8 mph 20.7 mph 0.05 in Rain Light Rain
8:51 PM 46.9 °F - 45.0 °F 93% 29.67 in 2.5 mi North 10.4 mph - 0.02 in Rain Light Rain
8:58 PM 46.9 °F - 45.0 °F 93% 29.67 in 6.0 mi North 9.2 mph - 0.00 in Rain Light Rain
9:41 PM 46.9 °F - 44.1 °F 90% 29.65 in 6.0 mi North 12.7 mph - 0.04 in Rain Light Rain
9:51 PM 46.9 °F - 44.1 °F 90% 29.66 in 6.0 mi North 16.1 mph 24.2 mph 0.05 in Rain Light Rain
10:23 PM 46.9 °F - 45.0 °F 93% 29.65 in 7.0 mi North 12.7 mph - 0.02 in Rain Light Rain
10:51 PM 46.0 °F 39.6 °F 44.1 °F 93% 29.65 in 2.5 mi North 15.0 mph - 0.07 in Rain Light Rain
11:08 PM 46.0 °F 41.0 °F 44.1 °F 93% 29.64 in 3.0 mi North 10.4 mph - 0.01 in Rain Light Rain
11:31 PM 46.0 °F 39.9 °F 44.1 °F 93% 29.64 in 2.5 mi North 13.8 mph - 0.01 in Rain Light Rain
11:39 PM 46.0 °F 40.2 °F 44.1 °F 93% 29.64 in 3.0 mi North 12.7 mph - 0.01 in Rain Light Rain
11:51 PM 46.0 °F 40.6 °F 44.1 °F 93% 29.64 in 3.0 mi North 11.5 mph - 0.01 in Rain Light Rain